Flag for Germany Weather past 2 weeks in Mönchengladbach, North Rhine-Westphalia, Germany

Now
55 °F

Passing clouds.


Feels Like: 54 °F
Forecast: 51 / 57 °F
Wind: 7 mph from South

Location: Monchengladbach Airport

Current Time: Oct 24, 2014 at 3:33:18 PM

Latest Report: Oct 24, 2014 at 3:20 PM


Visibility: N/A

Pressure: 30.09 "Hg

Humidity: 77%

Dew point: 48 °F

Location of MönchengladbachLocation

Historic Weather in Mönchengladbach — Graph

°F

Mönchengladbach temperature yesterday

Maximum temperature yesterday: 57 °F (at 2:50 PM)
Minimum temperature yesterday: 48 °F (at 7:50 AM)
Average temperature yesterday: 54 °F

Past Weeks' High & Low Weather Summary

 TemperatureHumidityPressure
High75 °F (Oct 19, 1:20 PM)100% (Oct 11, 7:50 AM)30.24 "Hg (Oct 11, 7:50 AM)
Low45 °F (Oct 11, 7:50 AM)56% (Oct 10, 2:20 PM)29.50 "Hg (Oct 21, 3:20 PM)
Average59 °F79%29.90 "Hg
* Reported Oct 9 2:20 PM — Oct 24 2:20 PM, Mönchengladbach, Weather by CustomWeather, © 2014

Note: Actual official high and low records may vary slightly from our data, if they occured in-between our weather recording intervals... More about our weather records

Advertising

Mönchengladbach weather history for previous 24 hours

 ConditionsComfort  
Time TempWeatherWind HumidityBarometerVisibility
2:20 PM
Oct 24
55 °FPassing clouds.9 mph77%30.12 "HgN/A
1:50 PM57 °FPassing clouds.7 mph72%30.12 "HgN/A
1:20 PM55 °FPassing clouds.8 mph77%30.12 "HgN/A
12:50 PM55 °FPassing clouds.10 mph72%30.12 "HgN/A
12:20 PM55 °FPartly cloudy.7 mph77%30.15 "HgN/A
11:50 AM55 °FPartly cloudy.7 mph77%30.15 "HgN/A
11:20 AM54 °FPassing clouds.6 mph82%30.15 "HgN/A
10:50 AM54 °FPartly cloudy.7 mph82%30.15 "HgN/A
10:20 AM54 °FBroken clouds.7 mph82%30.15 "HgN/A
9:50 AM54 °FBroken clouds.6 mph82%30.15 "HgN/A
9:20 AM52 °FScattered clouds.6 mph88%30.15 "HgN/A
8:50 AM52 °FScattered clouds.7 mph88%30.15 "HgN/A
8:20 AM52 °FPassing clouds.7 mph88%30.15 "HgN/A
7:50 AM52 °FPartly sunny.7 mph88%30.15 "HgN/A
8:20 PM
Oct 23
54 °FPassing clouds.6 mph88%30.18 "HgN/A
7:50 PM55 °FPassing clouds.6 mph82%30.18 "HgN/A
7:20 PM55 °FPassing clouds.3 mph82%30.18 "HgN/A
6:50 PM55 °FPassing clouds.5 mph82%30.18 "HgN/A
6:20 PM55 °FPassing clouds.5 mph82%30.18 "HgN/A
5:50 PM55 °FPassing clouds.5 mph77%30.18 "HgN/A
5:20 PM55 °FPassing clouds.6 mph77%30.18 "HgN/A
4:50 PM57 °FPassing clouds.6 mph72%30.21 "HgN/A
4:20 PM57 °FPassing clouds.6 mph77%30.21 "HgN/A
3:50 PM57 °FPassing clouds.9 mph77%30.21 "HgN/A
3:20 PM57 °FPassing clouds.7 mph77%30.21 "HgN/A
Weather by CustomWeather, © 2014

See weather overviewHow to use our weather pages